This is the latest recevied weather packets stored in our database for station/object OE5ERN-10. If no packets are shown the sender has not sent any weather packets the latest 10 day(s).
| Time | Temp. | Humidity | Pressure | Rain* | Wind** | Luminosity | Snow |
|---|---|---|---|---|---|---|---|
| 1777587942 | 3.33° C | 56% | 1032.6 hPa | 0 mm | - | - | - |
| 1777587042 | 3.89° C | 54% | 1032.7 hPa | 0 mm | - | - | - |
| 1777586142 | 4.44° C | 53% | 1032.6 hPa | 0 mm | - | - | - |
| 1777585242 | 4.44° C | 53% | 1032.5 hPa | 0 mm | - | - | - |
| 1777584342 | 5° C | 52% | 1032.5 hPa | 0 mm | - | - | - |
| 1777583442 | 5° C | 52% | 1032.6 hPa | 0 mm | - | - | - |
| 1777582542 | 5° C | 52% | 1032.5 hPa | 0 mm | - | - | - |
| 1777581642 | 5° C | 51% | 1032.6 hPa | 0 mm | - | - | - |
| 1777580742 | 5° C | 50% | 1032.6 hPa | 0 mm | - | - | - |
| 1777579842 | 6.11° C | 49% | 1032.5 hPa | 0 mm | - | - | - |
| 1777578942 | 6.11° C | 48% | 1032.4 hPa | 0 mm | - | - | - |
| 1777578042 | 6.67° C | 47% | 1032.4 hPa | 0 mm | - | - | - |
| 1777577142 | 7.22° C | 46% | 1032.1 hPa | 0 mm | - | - | - |
| 1777576242 | 7.78° C | 45% | 1031.9 hPa | 0 mm | - | - | - |
| 1777575342 | 7.78° C | 44% | 1031.8 hPa | 0 mm | - | - | - |
| 1777574442 | 8.33° C | 42% | 1031.7 hPa | 0 mm | - | - | - |
| 1777573542 | 9.44° C | 39% | 1031.5 hPa | 0 mm | - | - | - |
| 1777572642 | 10.56° C | 36% | 1031.5 hPa | 0 mm | - | - | - |
| 1777571742 | 12.78° C | 31% | 1031.3 hPa | 0 mm | - | - | - |
| 1777570842 | 15° C | 28% | 1031.2 hPa | 0 mm | - | - | - |
| 1777569942 | 15.56° C | 27% | 1030.9 hPa | 0 mm | - | - | - |
| 1777569042 | 16.11° C | 27% | 1030.9 hPa | 0 mm | - | - | - |
| 1777568143 | 16.11° C | 27% | 1030.9 hPa | 0 mm | - | - | - |
| 1777567243 | 16.11° C | 27% | 1030.8 hPa | 0 mm | - | - | - |
| 1777566343 | 15.56° C | 27% | 1031 hPa | 0 mm | - | - | - |
* Rain latest hour (hover to see other rain measurements)
** Current wind speed in m/s (hover to see current wind gust speed)